PST,Max TemperatureF,Mean TemperatureF,Min TemperatureF,Max Dew PointF,MeanDew PointF,Min DewpointF,Max Humidity, Mean Humidity, Min Humidity, Max Sea Level PressureIn, Mean Sea Level PressureIn, Min Sea Level PressureIn, Max VisibilityMiles, Mean VisibilityMiles, Min VisibilityMiles, Max Wind SpeedMPH, Mean Wind SpeedMPH, Max Gust SpeedMPH,PrecipitationIn, CloudCover, Events, WindDirDegrees
2013-12-1,57,51,45,47,44,37,89,74,62,30.19,29.94,29.77,10,9,5,24,11,36,0.46,8,Rain,203
2013-12-2,50,42,33,46,34,26,92,76,53,29.99,29.84,29.73,10,8,2,25,14,32,0.07,7,Snow,217
2013-12-3,32,23,14,31,23,10,96,87,72,30.27,30.11,29.96,10,5,0,16,6,,0.08,7,Fog-Snow,202
2013-12-4,21,16,10,18,12,5,93,79,68,30.41,30.34,30.24,10,10,9,9,4,,0.00,5,,156
2013-12-5,19,14,9,10,6,3,77,72,57,30.40,30.35,30.32,10,10,10,7,4,,0.00,0,,97
2013-12-6,17,14,10,12,9,5,84,80,77,30.32,30.24,30.13,10,9,6,7,4,,0.00,7,,169
2013-12-7,17,10,3,13,3,-5,88,69,56,30.50,30.31,30.08,10,9,5,18,9,,0.00,4,,163
2013-12-8,17,12,6,3,0,-5,73,61,50,30.63,30.54,30.48,10,10,10,8,5,,0.00,3,,113
2013-12-9,27,20,12,20,12,1,77,66,44,30.58,30.49,30.38,10,10,10,5,2,,0.00,6,,100
2013-12-10,30,26,21,25,18,15,86,76,69,30.50,30.45,30.36,10,9,6,9,4,,0.00,7,,207
2013-12-11,25,20,15,17,14,10,85,78,69,30.50,30.45,30.38,8,7,6,6,1,,0.00,0,,129
2013-12-12,39,28,17,33,20,12,89,77,69,30.36,30.24,30.12,10,7,5,14,2,,0.00,4,Rain,165
2013-12-13,46,37,28,38,33,25,89,80,73,30.45,30.32,30.20,10,8,3,14,6,,0.01,6,Rain,180
2013-12-14,48,40,35,37,34,30,89,76,48,30.45,30.38,30.32,10,10,4,13,6,,0.00,2,,149
2013-12-15,57,50,43,41,35,29,77,61,40,30.38,30.32,30.27,10,10,10,16,10,,0.00,2,,200
2013-12-16,52,44,35,38,34,28,79,69,54,30.44,30.38,30.31,10,10,10,15,9,,0.00,0,,174
2013-12-17,48,39,30,37,31,28,100,84,44,30.29,30.14,30.04,10,6,0,16,4,,0.00,2,Fog,168
2013-12-18,46,40,33,38,35,28,89,75,52,30.07,29.99,29.91,10,10,10,14,8,,0.01,5,Rain,202
2013-12-19,32,28,23,29,18,12,88,64,45,30.32,30.22,30.05,10,10,10,12,7,,0.00,2,,198
2013-12-20,41,36,30,37,28,11,97,75,35,30.16,29.86,29.66,10,7,0,21,11,29,0.21,7,Fog-Rain-Snow,197
2013-12-21,39,34,28,37,30,28,100,93,86,30.15,30.02,29.77,10,3,2,12,5,,0.02,8,Rain,197
2013-12-22,46,39,32,41,34,30,100,93,82,30.32,30.26,30.15,10,3,0,10,5,,0.02,8,Fog-Rain,207
2013-12-23,55,47,39,43,38,31,80,69,57,30.47,30.25,30.10,10,10,10,20,12,30,0.02,6,Rain,199
2013-12-24,46,40,30,32,28,23,79,66,48,30.60,30.54,30.48,10,10,10,14,10,,0.00,0,,165
2013-12-25,33,29,25,30,27,24,100,92,70,30.56,30.48,30.41,10,4,0,9,4,,0.00,4,Fog,173
2013-12-26,34,30,26,31,27,24,100,95,85,30.47,30.38,30.30,10,2,0,7,3,,0.00,4,Fog,170
2013-12-27,37,32,28,33,28,25,96,88,82,30.33,30.21,30.12,10,2,0,10,3,,0.00,7,Fog,170
2013-12-28,32,28,23,30,26,21,100,93,85,30.54,30.44,30.27,10,1,0,9,3,,0.00,4,Fog,199
2013-12-29,37,31,25,34,26,21,100,89,76,30.51,30.35,30.24,10,3,0,8,3,,0.00,3,Fog,161
2013-12-30,37,32,28,36,29,25,100,91,85,30.34,30.23,30.14,10,2,0,9,3,,0.04,7,Fog-Rain,203
2013-12-31,46,39,32,37,34,31,96,77,65,30.36,30.23,30.15,10,9,2,15,8,,0.12,5,Rain,167